• în România
  • Lista ţărilor
  • Pe 7 zile
  • Temperatura apei
  • Hartă satelitară
  • Meteo pe hartă
  • Widget-uri
  • user-avatar
    Intrare

    Meteo pe oră la Porech

    Astăzi, 21 Octombrie, Sâmbătă

    Timp Temperatura Precipitaţii Vânt Presiune Umiditate
    00:00 +14°C° 0 mm 1 m/s 764 mmHg 93%
    01:00 +14°C° 0 mm 1 m/s 764 mmHg 93%
    02:00 +14°C° 0 mm 1 m/s 764 mmHg 93%
    03:00 +14°C° 0 mm 1 m/s 764 mmHg 93%
    04:00 +14°C° 0 mm 1 m/s 764 mmHg 93%
    05:00 +14°C° 0 mm 2 m/s 764 mmHg 93%
    06:00 +14°C° 0 mm 2 m/s 764 mmHg 93%
    07:00 +14°C° 0 mm 2 m/s 764 mmHg 92%
    08:00 +16°C° 0 mm 2 m/s 764 mmHg 85%
    09:00 +18°C° 0 mm 2 m/s 764 mmHg 77%
    10:00 +21°C° 0 mm 1 m/s 764 mmHg 69%
    11:00 +21°C° 0 mm 1 m/s 764 mmHg 69%
    12:00 +21°C° 0 mm 1 m/s 763 mmHg 69%
    13:00 +21°C° 0 mm 1 m/s 763 mmHg 68%
    14:00 +21°C° 0 mm 1 m/s 763 mmHg 72%
    15:00 +20°C° 0 mm 1 m/s 762 mmHg 76%
    16:00 +20°C° 0 mm 1 m/s 762 mmHg 79%
    17:00 +19°C° 0 mm 1 m/s 762 mmHg 84%
    18:00 +18°C° 0 mm 1 m/s 763 mmHg 89%
    19:00 +16°C° 0 mm 1 m/s 763 mmHg 93%
    20:00 +16°C° 0 mm 1 m/s 763 mmHg 93%
    21:00 +16°C° 0 mm 2 m/s 763 mmHg 94%
    22:00 +16°C° 0 mm 2 m/s 763 mmHg 94%
    23:00 +16°C° 0 mm 2 m/s 762 mmHg 94%

    Mâine, 22 Octombrie, Duminică

    Timp Temperatura Precipitaţii Vânt Presiune Umiditate
    00:00 +15°C° 0 mm 2 m/s 762 mmHg 94%
    01:00 +15°C° 0 mm 2 m/s 762 mmHg 95%
    02:00 +16°C° 0 mm 2 m/s 762 mmHg 94%
    03:00 +16°C° 0 mm 2 m/s 761 mmHg 94%
    04:00 +16°C° 0 mm 3 m/s 761 mmHg 94%
    05:00 +16°C° 0 mm 3 m/s 761 mmHg 94%
    06:00 +16°C° 0 mm 3 m/s 760 mmHg 93%
    07:00 +15°C° 0 mm 4 m/s 760 mmHg 93%
    08:00 +17°C° 0,6 mm 4 m/s 760 mmHg 91%
    09:00 +18°C° 0,6 mm 4 m/s 759 mmHg 89%
    10:00 +17°C° 0,6 mm 5 m/s 759 mmHg 88%
    11:00 +17°C° 1,5 mm 5 m/s 759 mmHg 89%
    12:00 +18°C° 1,5 mm 4 m/s 758 mmHg 90%
    13:00 +18°C° 1,5 mm 4 m/s 757 mmHg 91%
    14:00 +18°C° 1,2 mm 4 m/s 757 mmHg 90%
    15:00 +17°C° 1,2 mm 5 m/s 757 mmHg 88%
    16:00 +19°C° 1,2 mm 5 m/s 756 mmHg 87%
    17:00 +17°C° 0,9 mm 5 m/s 756 mmHg 87%
    18:00 +16°C° 0,9 mm 6 m/s 757 mmHg 87%
    19:00 +16°C° 0,9 mm 7 m/s 757 mmHg 87%
    20:00 +15°C° 0,6 mm 8 m/s 757 mmHg 84%
    21:00 +13°C° 0,6 mm 9 m/s 758 mmHg 81%
    22:00 +12°C° 0,6 mm 10 m/s 758 mmHg 78%
    23:00 +12°C° 1,8 mm 9 m/s 758 mmHg 75%

    Poimâine, 23 Octombrie, Luni

    Timp Temperatura Precipitaţii Vânt Presiune Umiditate
    00:00 +12°C° 1,8 mm 9 m/s 758 mmHg 72%
    01:00 +12°C° 1,8 mm 8 m/s 758 mmHg 69%
    02:00 +11°C° 0,9 mm 7 m/s 758 mmHg 74%
    03:00 +11°C° 0,9 mm 7 m/s 758 mmHg 78%
    04:00 +10°C° 0,9 mm 6 m/s 758 mmHg 82%
    05:00 +10°C° 0,2 mm 6 m/s 759 mmHg 82%
    06:00 +10°C° 0,2 mm 5 m/s 759 mmHg 83%
    07:00 +10°C° 0,2 mm 5 m/s 760 mmHg 83%
    08:00 +12°C° 0 mm 5 m/s 760 mmHg 79%
    09:00 +13°C° 0 mm 5 m/s 760 mmHg 74%
    10:00 +14°C° 0 mm 5 m/s 760 mmHg 70%
    11:00 +14°C° 0 mm 4 m/s 760 mmHg 66%
    12:00 +15°C° 0 mm 4 m/s 759 mmHg 63%
    13:00 +17°C° 0 mm 4 m/s 759 mmHg 59%
    14:00 +16°C° 0 mm 3 m/s 759 mmHg 61%
    15:00 +16°C° 0 mm 3 m/s 759 mmHg 63%
    16:00 +16°C° 0 mm 2 m/s 759 mmHg 65%
    17:00 +15°C° 0 mm 2 m/s 760 mmHg 68%
    18:00 +14°C° 0 mm 2 m/s 760 mmHg 72%
    19:00 +13°C° 0 mm 2 m/s 761 mmHg 75%
    20:00 +12°C° 0 mm 2 m/s 761 mmHg 74%
    21:00 +12°C° 0 mm 2 m/s 761 mmHg 72%
    22:00 +11°C° 0 mm 3 m/s 762 mmHg 71%
    23:00 +11°C° 0 mm 3 m/s 762 mmHg 69%

    24 Octombrie, Marţi

    Timp Temperatura Precipitaţii Vânt Presiune Umiditate
    00:00 +11°C° 0 mm 3 m/s 762 mmHg 67%
    01:00 +11°C° 0 mm 3 m/s 762 mmHg 65%
    02:00 +11°C° 0 mm 3 m/s 762 mmHg 65%
    03:00 +11°C° 0 mm 3 m/s 762 mmHg 65%
    04:00 +10°C° 0 mm 3 m/s 763 mmHg 64%
    05:00 +10°C° 0 mm 3 m/s 763 mmHg 63%
    06:00 +10°C° 0 mm 3 m/s 763 mmHg 63%
    07:00 +10°C° 0 mm 3 m/s 764 mmHg 62%
    08:00 +12°C° 0 mm 3 m/s 764 mmHg 57%
    09:00 +14°C° 0 mm 3 m/s 764 mmHg 52%
    10:00 +17°C° 0 mm 4 m/s 764 mmHg 47%
    11:00 +18°C° 0 mm 3 m/s 764 mmHg 45%
    12:00 +19°C° 0 mm 3 m/s 764 mmHg 44%
    13:00 +19°C° 0 mm 3 m/s 763 mmHg 42%
    14:00 +19°C° 0 mm 3 m/s 764 mmHg 47%
    15:00 +18°C° 0 mm 3 m/s 764 mmHg 51%
    16:00 +18°C° 0 mm 2 m/s 764 mmHg 55%
    17:00 +16°C° 0 mm 3 m/s 764 mmHg 58%
    18:00 +14°C° 0 mm 3 m/s 765 mmHg 61%
    19:00 +13°C° 0 mm 3 m/s 766 mmHg 63%
    20:00 +12°C° 0 mm 3 m/s 766 mmHg 64%
    21:00 +12°C° 0 mm 4 m/s 767 mmHg 64%
    22:00 +12°C° 0 mm 4 m/s 767 mmHg 65%
    23:00 +12°C° 0 mm 4 m/s 767 mmHg 66%

    25 Octombrie, Miercuri

    Timp Temperatura Precipitaţii Vânt Presiune Umiditate
    00:00 +11°C° 0 mm 3 m/s 767 mmHg 67%
    01:00 +11°C° 0 mm 3 m/s 767 mmHg 68%
    02:00 +11°C° 0 mm 3 m/s 767 mmHg 69%
    03:00 +11°C° 0 mm 3 m/s 767 mmHg 71%
    04:00 +10°C° 0 mm 3 m/s 767 mmHg 73%
    05:00 +10°C° 0 mm 3 m/s 768 mmHg 74%
    06:00 +10°C° 0 mm 3 m/s 768 mmHg 75%
    07:00 +10°C° 0 mm 3 m/s 768 mmHg 76%
    08:00 +12°C° 0 mm 3 m/s 768 mmHg 70%
    09:00 +15°C° 0 mm 2 m/s 768 mmHg 64%
    10:00 +17°C° 0 mm 2 m/s 768 mmHg 57%
    11:00 +18°C° 0 mm 2 m/s 768 mmHg 55%
    12:00 +18°C° 0 mm 2 m/s 768 mmHg 53%
    13:00 +19°C° 0 mm 2 m/s 767 mmHg 51%
    14:00 +19°C° 0 mm 2 m/s 767 mmHg 55%
    15:00 +18°C° 0 mm 3 m/s 767 mmHg 59%
    16:00 +18°C° 0 mm 3 m/s 767 mmHg 63%
    17:00 +16°C° 0 mm 3 m/s 767 mmHg 67%
    18:00 +14°C° 0 mm 3 m/s 768 mmHg 71%
    19:00 +13°C° 0 mm 3 m/s 768 mmHg 75%
    20:00 +13°C° 0 mm 3 m/s 768 mmHg 76%
    21:00 +13°C° 0 mm 3 m/s 769 mmHg 77%
    22:00 +13°C° 0 mm 2 m/s 769 mmHg 78%
    23:00 +13°C° 0 mm 2 m/s 769 mmHg 79%

    26 Octombrie, Joi

    Timp Temperatura Precipitaţii Vânt Presiune Umiditate
    00:00 +13°C° 0 mm 2 m/s 769 mmHg 79%
    01:00 +13°C° 0 mm 2 m/s 769 mmHg 80%
    02:00 +13°C° 0 mm 2 m/s 769 mmHg 80%
    03:00 +13°C° 0 mm 2 m/s 769 mmHg 80%
    04:00 +13°C° 0 mm 2 m/s 769 mmHg 80%
    05:00 +13°C° 0 mm 2 m/s 769 mmHg 80%
    06:00 +13°C° 0 mm 2 m/s 769 mmHg 80%
    07:00 +12°C° 0 mm 3 m/s 769 mmHg 80%
    08:00 +15°C° 0 mm 2 m/s 769 mmHg 73%
    09:00 +17°C° 0 mm 2 m/s 769 mmHg 66%
    10:00 +19°C° 0 mm 2 m/s 769 mmHg 59%
    11:00 +20°C° 0 mm 2 m/s 769 mmHg 57%
    12:00 +21°C° 0 mm 2 m/s 768 mmHg 55%
    13:00 +23°C° 0 mm 2 m/s 768 mmHg 53%
    14:00 +21°C° 0 mm 2 m/s 768 mmHg 58%
    15:00 +20°C° 0 mm 2 m/s 768 mmHg 63%
    16:00 +19°C° 0 mm 2 m/s 768 mmHg 68%
    17:00 +18°C° 0 mm 2 m/s 768 mmHg 72%
    18:00 +17°C° 0 mm 2 m/s 768 mmHg 76%
    19:00 +16°C° 0 mm 2 m/s 768 mmHg 80%
    20:00 +16°C° 0 mm 2 m/s 768 mmHg 81%
    21:00 +15°C° 0 mm 2 m/s 768 mmHg 82%
    22:00 +15°C° 0 mm 2 m/s 769 mmHg 83%
    23:00 +15°C° 0 mm 2 m/s 769 mmHg 82%
    Arată mai mult